Location: �perlecques
(50.8057°N, 2.1521°E)
Time: 22:54:15
(UTC+00:00)

STARLINK-1230 - Pass Details

Date: 09 April 2020
Orbit: 548 x 551 km, 53.0° (Epoch: 03 June)

Event Time Altitude Azimuth Distance (km) Brightness Sun altitude
Rises 19:07:50 0° 285° (WNW) 2,731 9.9 -5.4°
Reaches altitude 10° 19:10:05 10° 287° (WNW) 1,836 8.2 -5.7°
Maximum altitude 19:14:15 76° 13° (NNE) 575 3.7 -6.3°
Drops below altitude 10° 19:18:26 10° 100° (E) 1,831 5.6 -6.9°
Enters shadow 19:18:44 - 101° (E) 1,952 5.8 -7.0°
